Regional Weather Roundup
Issued by NWS

Home | Current Version | Previous Version | Graphics & Text | Print | Product List | Glossary Off
Versions: 1 2 3 4 5 6 7 8 9 10 11 12 13 14 15 16 17 18 19 20 21 22 23 24 25 26 27 28 29 30 31 32 33 34 35 36 37 38 39 40 41 42 43 44 45 46 47 48 49 50

000
ASUS43 KTOP 262108
RWRKS

WEATHER ROUNDUP FOR KANSAS
NATIONAL WEATHER SERVICE GOODLAND KS
400 PM CDT TUE SEP 26 2017

NOTE:  "FAIR" INDICATES FEW OR NO CLOUDS BELOW 12,000 FEET WITH NO
SIGNIFICANT WEATHER AND/OR OBSTRUCTIONS TO VISIBILITY.

KSZ001>006-013>018-027>032-041>047-262200-
NORTHWEST KANSAS

CITY           SKY/WX    TMP DP  RH WIND       PRES   REMARKS
GOODLAND       CLOUDY    63  47  55 E9        30.16R
HAYS           PTSUNNY   60  49  66 NE7       30.15S
HILL CITY      MOSUNNY   60  49  66 NE6       30.16F
RUSSELL        CLOUDY    60  49  66 N9        30.14S
$$

KSZ061>065-074>080-084>089-262200-
SOUTHWEST KANSAS

CITY           SKY/WX    TMP DP  RH WIND       PRES   REMARKS
DODGE CITY     CLOUDY    60  49  66 N12       30.15S
ELKHART          N/A     58  52  81 N7          N/A
GARDEN CITY    CLOUDY    57  48  72 NE13      30.15F
GREAT BEND     CLOUDY    59  51  75 N13       30.14F
LIBERAL        CLOUDY    59  51  75 N7        30.15S
PRATT          CLOUDY    58  50  74 N14       30.14R
$$

KSZ066>073-081>083-090>101-262200-
SOUTHEAST KANSAS

CITY           SKY/WX    TMP DP  RH WIND       PRES   REMARKS
CHANUTE        LGT RAIN  67  64  90 N10       30.07R
COFFEYVILLE    CLOUDY    68  67  96 N13       30.02S
HUTCHINSON     CLOUDY    60  55  83 NE10      30.11S
MEDICINE LODGE   N/A     60  52  74 N15       30.11S
NEWTON         CLOUDY    58  55  90 N12       30.11F
PARSONS        LGT RAIN  68  65  90 N9        30.05F
WICHITA INTL   LGT RAIN  59  58  96 N9        30.09F
WICHITA JABRA  LGT RAIN  58  58 100 N10       30.09S
WICHITA MCCONL LGT RAIN  59  55  88 NE13      30.08F
WINFIELD       PTSUNNY   63  61  93 N10       30.07F
$$

KSZ007>012-019>026-033>040-048>060-102>105-262200-
NORTHEAST KANSAS

CITY           SKY/WX    TMP DP  RH WIND       PRES   REMARKS
CONCORDIA      PTSUNNY   61  53  75 N8        30.13S
EMPORIA        CLOUDY    63  56  78 N10       30.09S
LAWRENCE       CLOUDY    66  59  78 NW7       30.09S
MANHATTAN      CLOUDY    62  54  74 NE8       30.12S
MARYSVILLE     CLOUDY    64  54  68 N8        30.11F
OLATHE IND     CLOUDY    66  60  81 NW12      30.08F
OLATHE EXE     CLOUDY    66  62  87 N10       30.07S
SALINA         CLOUDY    64  53  67 N9        30.13S
TOPEKA BILLARD CLOUDY    64  58  80 NW9       30.09F
TOPEKA FORBES  CLOUDY    64  58  80 NW8       30.09F
$$




USA.gov is the U.S. government's official web portal to all federal, state and local government web resources and services.